Location: Derval
(47.6672°N, 1.6699°W)
Time: 07:28:33
(UTC+00:00)

Daily predictions for brighter satellites

Satellite Brightness Start Highest point End
(mag) Time Altitude Azimuth Time Altitude Azimuth Time Altitude Azimuth
Cosmos 1300 3.7 20:45:27 10° NNW 20:49:06 47° W 20:52:45 10° SSW
Resurs 01 Rocket 2.1 20:44:56 10° S 20:49:20 64° WSW 20:53:47 10° NNW
Cosmos 1624 Rocket 4.1 20:50:31 10° S 20:55:39 61° ESE 21:00:48 10° NNE
Helios 1A Rocket 3.8 20:51:56 10° SE 20:55:40 36° ENE 20:59:27 10° N
CZ-4B R/B 1.0 20:53:17 10° NNE 20:56:10 83° WNW 20:59:03 10° SSW
Cosmos 1190 Rocket 4.1 20:51:41 10° NNW 20:57:02 84° WSW 21:02:21 10° SSE
Lacrosse 5 rocket 1.2 20:54:00 10° NW 20:57:50 78° SW 21:01:52 10° SE
Cosmos 407 Rocket 4.1 20:54:56 10° NNW 20:59:59 54° WSW 21:04:58 10° S
Cosmos 1271 Rocket 3.3 20:56:41 10° N 21:00:32 46° ENE 21:04:21 10° SSE
NOSS 2-1 (E) 4.3 21:00:35 10° NW 21:05:00 61° NE 21:11:14 10° SE
SPOT 3 Rocket 3.6 21:00:21 10° SSE 21:05:31 81° ENE 21:10:46 10° NNW
ERS-1 Rocket 3.4 21:03:49 10° SE 21:08:40 51° ENE 21:13:33 10° N
RESURS DK-1 4.0 21:05:48 10° N 21:09:12 24° NE 21:12:35 10° ESE
Cosmos 2056 Rocket 3.6 21:10:58 10° SSW 21:16:21 89° ESE 21:21:50 10° NNE
Cosmos 1025 Rocket 3.2 21:12:37 10° SSW 21:16:53 78° W 21:21:12 10° N
CZ-2C R/B 4.4 21:12:54 10° NNE 21:17:11 37° E 21:21:17 10° SSE
Cosmos 1455 Rocket 3.7 21:15:02 10° NNW 21:19:17 53° W 21:23:28 10° S
Cosmos 2315 Rocket 4.2 21:13:05 10° S 21:19:26 83° W 21:25:46 10° N
ARIANE 5 R/B 3.5 21:18:10 12° SE 21:21:55 38° ENE 21:26:02 10° N
Cosmos 1420 Rocket 4.0 21:18:59 10° SSW 21:24:13 85° ESE 21:29:33 10° NNE
Cosmos 1709 Rocket 4.5 21:18:15 10° NNW 21:24:21 61° W 21:30:30 10° S
Cosmos 676 Rocket 4.1 21:19:12 10° NNW 21:24:32 81° WSW 21:29:29 12° SSE
SL-8 R/B 3.8 21:22:08 10° W 21:26:58 82° N 21:31:48 10° E
Cosmos 1455 2.3 21:28:00 10° NNW 21:31:49 79° W 21:35:18 12° S
USA 245 4.0 21:28:40 10° S 21:33:21 56° WSW 21:37:08 10° NNW
Cosmos 2074 Rocket 4.1 21:28:28 10° N 21:34:44 65° ENE 21:40:09 14° SSE
Meteor 2-5 Rocket 4.4 21:33:32 10° SSW 21:38:57 56° WNW 21:44:26 10° N
USA 32 4.2 21:33:50 10° S 21:39:02 75° W 21:44:17 10° N
Ariane Rocket 4.4 21:35:01 10° SSW 21:39:38 34° W 21:44:17 10° NNW
Cosmos 1607 4.2 21:35:39 10° SW 21:41:52 74° NW 21:48:05 10° NE
TSX-5 4.5 21:38:54 10° S 21:43:06 52° ESE 21:48:33 10° NE
USA 267 3.4 21:39:45 10° ENE 21:46:03 48° SE 21:52:19 10° SSW
NOSS 2-1 (C) 4.2 21:42:02 10° NW 21:46:33 67° SW 21:51:27 17° SSE
Cosmos 1536 Rocket 3.5 21:43:13 12° S 21:47:16 75° E 21:51:37 10° NNE
Cosmos 2228 3.2 21:45:08 10° N 21:49:19 54° ENE 21:52:05 20° SSE
Tiangong 2.6 21:47:37 10° WSW 21:50:04 21° SSW 21:50:37 20° S
SPOT 5 3.0 21:46:23 13° S 21:50:20 59° WSW 21:54:39 10° NNW
Cosmos 1850 Rocket 4.1 21:46:22 10° NNW 21:51:36 71° ENE 21:55:21 19° SSE
Cosmos 1980 Rocket 3.6 21:46:40 10° NNW 21:51:38 29° NE 21:56:32 10° ESE
Nadezhda 1 Rocket 4.2 21:47:09 15° SSE 21:52:00 51° E 21:57:50 10° NNE
Cosmos 1703 3.2 21:51:23 17° S 21:54:14 66° E 21:58:04 10° NNE
Cosmos 1606 Rocket 4.2 21:50:14 10° N 21:54:20 41° ENE 21:56:56 20° SE
Cosmos 1697 Rocket 3.2 21:49:00 10° NNW 21:54:30 51° ENE 21:58:44 17° SE
NOSS 2-1 (D) 4.4 21:52:22 10° NW 21:56:55 57° SW 22:01:33 18° SSE
Cosmos 2084 4.3 21:55:26 10° WSW 21:59:09 47° NW 22:02:56 10° NNE
Cosmos 2154 Rocket 4.0 21:53:20 10° N 21:59:35 70° E 22:04:14 18° SSE
ASTRO F (AKARI) 4.5 21:58:48 23° SSE 22:00:56 86° ENE 22:04:29 10° NNW
USA 276 1.9 21:59:48 10° WSW 22:02:48 89° S 22:05:49 10° ENE
Cosmos 1656 3.7 21:58:34 10° NNW 22:04:01 73° WSW 22:07:55 20° SSE
Cosmos 1328 4.5 22:04:05 23° SE 22:06:00 39° E 22:09:45 10° NNE
Cosmos 1331 Rocket 4.3 22:04:06 17° S 22:07:55 50° ESE 22:13:02 10° NNE
Spot 2 Rocket 4.4 22:05:55 11° SSW 22:10:27 42° W 22:15:18 10° NNW
X-37B 0.5 22:09:37 10° WSW 22:12:20 47° S 22:12:57 38° SE
Meteor 1-21 Rocket 4.2 22:10:01 17° S 22:14:21 72° E 22:20:01 10° NNE
Cosmos 1408 3.9 22:15:25 21° ESE 22:16:09 22° E 22:18:52 10° NE
Lacrosse 5 2.6 22:12:40 10° WNW 22:17:25 39° SW 22:20:08 22° S
Cosmos 1452 Rocket 3.6 22:12:39 10° SSW 22:17:55 83° WNW 22:23:13 10° NNE
Cosmos 1726 Rocket 3.8 22:14:55 10° N 22:19:10 56° ENE 22:21:23 26° SSE
SAR-Lupe-4 3.8 22:16:02 10° NNE 22:19:33 52° ESE 22:21:00 30° SSE
Terra 2.6 22:16:55 16° SSW 22:20:30 46° W 22:25:07 10° NNW
ATLAS 2AS CENTAUR R/B 3.5 22:14:22 10° NW 22:20:51 41° WSW 22:25:25 17° S
USA 234 3.4 22:14:24 10° ESE 22:20:55 73° NNE 22:27:29 10° NW
Cosmos 1833 Rocket 2.7 22:17:42 14° SSW 22:22:32 66° ESE 22:28:07 10° NNE
SL-8 Rocket 4.5 22:23:56 10° N 22:30:00 48° ENE 22:33:46 22° SE
Cosmos 1110 Rocket 3.9 22:25:42 15° SSW 22:30:04 82° ESE 22:35:24 10° NNE
Cosmos 2360 4.2 22:26:55 10° NNW 22:32:42 90° WSW 22:36:09 25° SSE
Cosmos 1900 4.5 22:28:20 10° NNW 22:33:32 78° NE 22:36:32 25° SE
ALOS 2 4.1 22:32:45 17° ESE 22:35:08 27° ENE 22:38:48 10° N
SAR-Lupe-1 4.0 22:32:06 10° NNE 22:35:42 86° WNW 22:37:27 28° SSW
Lacrosse 5 rocket 3.5 22:34:32 10° W 22:36:19 13° SW 22:37:26 12° SW
Cosmos 2218 Rocket 4.5 22:35:50 10° N 22:42:05 51° ENE 22:45:53 23° SE
Cosmos 2082 Rocket 2.7 22:42:49 27° SSE 22:45:28 44° ESE 22:50:51 10° NE
Cosmos 2366 rocket 4.4 22:39:40 10° N 22:45:52 54° ENE 22:49:34 24° SE
Meteor 2-1 Rocket 4.4 22:41:41 10° NNW 22:47:08 63° W 22:50:28 24° S
RESURS DK-1 3.1 22:43:26 10° NW 22:47:21 43° WSW 22:48:58 29° SSW
Cosmos 2341 Rocket 4.0 22:44:03 10° N 22:50:26 80° E 22:54:07 27° SSE
Cosmos 2058 Rocket 3.1 22:48:48 10° N 22:53:13 75° E 22:55:04 34° SSE
Spot 4 4.0 22:52:43 30° SE 22:55:00 65° ENE 22:59:46 10° N
Cosmos 1892 Rocket 3.5 22:53:33 30° S 22:55:43 87° W 23:00:08 10° N
ARIANE 5 R/B 4.3 22:55:42 15° SW 22:58:27 25° W 23:02:10 10° NW
Cosmos 1825 3.0 22:58:50 32° ESE 22:59:31 35° E 23:02:57 10° NNE
Cosmos 192 4.2 23:00:39 28° SSW 23:03:17 81° ESE 23:08:13 10° NNE
Cosmos 968 Rocket 3.4 22:59:40 10° NNW 23:04:54 89° WSW 23:07:22 32° SSE
ERS-2 3.9 23:03:11 10° NE 23:05:44 18° E 23:05:53 18° E
GP-B 3.3 23:04:51 10° N 23:09:15 66° W 23:11:19 30° SSW
SL-8 R/B 3.8 23:04:43 10° WNW 23:09:27 57° SSW 23:11:22 33° SE
Cosmos 1959 Rocket 4.5 23:04:18 10° N 23:10:26 76° E 23:13:40 30° SSE
Cosmos 1626 Rocket 4.0 23:10:22 35° SE 23:11:39 47° E 23:15:49 10° NNE
Cosmos 1869 3.4 23:12:14 10° N 23:16:05 62° E 23:17:08 42° SE
BREEZE-M DEB (TANK) 3.7 23:13:11 10° WNW 23:16:13 76° N 23:27:12 10° E
Meteor 1-27 4.2 23:12:23 10° N 23:17:59 79° ENE 23:20:39 32° SSE
ASTEX 1 4.1 23:14:21 10° N 23:19:11 49° WNW 23:22:15 21° SW
Cosmos 864 Rocket 4.4 23:14:12 10° N 23:20:24 89° E 23:23:39 30° S
Cosmos 2181 Rocket 3.9 23:20:12 29° S 23:23:36 88° E 23:29:50 10° N
COSMOS 2406 3.4 23:19:53 18° SW 23:24:17 74° WNW 23:30:04 10° NNE
ADEOS Rocket 3.5 23:20:28 27° SSE 23:24:48 78° ENE 23:32:29 10° NNW
Cosmos 1633 3.4 23:25:15 32° ESE 23:25:32 33° E 23:28:42 10° NNE
Cosmos 2369 3.9 23:21:54 10° NNW 23:27:33 59° WSW 23:30:04 32° S
SL-16 R/B 3.2 23:23:35 10° NNW 23:28:58 42° NE 23:33:08 16° ESE
Okean 1-7 Rocket 3.5 23:27:28 40° S 23:29:01 84° E 23:33:32 10° N
USA 267 3.6 23:22:46 10° NE 23:29:14 67° NNW 23:35:43 10° WSW
Cosmos 1892 3.2 23:30:47 34° SW 23:32:04 50° WNW 23:35:45 10° N
Cosmos 1980 Rocket 2.4 23:30:24 10° NW 23:35:59 57° WSW 23:38:22 33° S
SJ 16-02 2.9 23:32:44 10° N 23:36:38 29° ENE 23:39:13 17° ESE
Cosmos 1486 Rocket 4.0 23:31:59 10° NNW 23:37:14 80° ENE 23:39:34 34° SSE
Cosmos 1697 Rocket 3.9 23:33:27 10° NW 23:38:11 29° WSW 23:40:27 22° SW
Cosmos 2084 Rocket 3.5 23:34:48 10° NW 23:38:36 49° SW 23:39:10 45° SSW
USA 276 2.8 23:35:42 10° WNW 23:38:39 51° N 23:41:36 10° ENE
Cosmos 1821 Rocket 4.1 23:36:27 10° N 23:42:44 69° E 23:45:54 30° SSE
Cosmos 1992 Rocket 3.9 23:48:17 35° SSW 23:50:33 83° ESE 23:55:49 10° NNE
Cosmos 1408 4.3 23:49:23 19° WSW 23:50:43 24° WNW 23:53:35 10° NNW
In-Cosmos 22 Rocket 4.5 23:48:12 26° SSW 23:51:16 61° WNW 23:56:43 10° N
Cosmos 807 4.3 23:51:19 10° NNW 23:54:37 59° W 23:54:43 59° WSW
